GW4786 Weather Reports


time (UTC)temp
C
wind
direction
speed
KPH
gust
KPH
rain 1hr
cm
rain 24hr
cm
rain mn
cm
humidity
%
barometer
mb
20260507111030 10 316 3.2 9.7 0.00 0.58 0.03 62 1012.7
20260507110530 10 360 4.8 9.7 0.00 0.58 0.03 62 1012.5
20260507110042 10 321 4.8 14.5 0.00 0.58 0.03 64 1012.5
20260507105530 10 338 6.4 14.5 0.00 0.58 0.03 65 1012.4
20260507105031 10 304 4.8 11.3 0.00 0.58 0.03 67 1012.3
20260507104540 10 325 4.8 11.3 0.00 0.58 0.03 67 1012.2
20260507104031 10 275 3.2 4.8 0.00 0.58 0.03 68 1012.4
20260507103531 10 0 0.0 6.4 0.00 0.58 0.03 70 1012.3
20260507103038 10 360 1.6 6.4 0.00 0.58 0.03 70 1012.3
20260507102531 10 10 3.2 6.4 0.00 0.58 0.03 70 1012.2
20260507102031 10 310 1.6 8.0 0.00 0.58 0.03 71 1012.1
20260507101556 10 294 4.8 8.0 0.00 0.58 0.03 72 1012.1
20260507101031 10 287 3.2 8.0 0.00 0.58 0.03 73 1012.0
20260507100530 10 327 3.2 8.0 0.00 0.58 0.03 76 1011.9
20260507100054 10 281 4.8 9.7 0.00 0.58 0.03 76 1011.9
20260507095532 10 313 4.8 9.7 0.00 0.58 0.03 77 1011.8
20260507095031 10 309 4.8 9.7 0.00 0.58 0.03 81 1011.8
20260507094543 10 19 3.2 8.0 0.00 0.58 0.03 82 1011.8
20260507094030 10 334 0.0 3.2 0.00 0.58 0.03 82 1011.9
20260507093530 10 0 0.0 6.4 0.00 0.58 0.03 84 1011.9
20260507093042 10 293 3.2 8.0 0.00 0.58 0.03 84 1011.9
20260507092533 10 352 3.2 12.9 0.00 0.58 0.03 86 1011.8
20260507092033 10 328 6.4 12.9 0.00 0.58 0.03 86 1012.0
20260507091539 10 317 4.8 9.7 0.00 0.58 0.03 87 1012.0
20260507091031 10 294 6.4 11.3 0.00 0.58 0.03 88 1012.0
20260507090530 10 315 6.4 11.3 0.00 0.58 0.03 89 1011.9
20260507090049 10 311 3.2 9.7 0.00 0.58 0.03 89 1011.7
20260507085532 10 325 3.2 6.4 0.00 0.58 0.03 89 1011.9
20260507085031 10 298 4.8 6.4 0.00 0.58 0.03 89 1011.7
20260507084549 10 308 4.8 6.4 0.00 0.58 0.03 89 1011.6
20260507084032 10 336 3.2 6.4 0.00 0.58 0.03 89 1011.5
20260507083531 10 313 3.2 8.0 0.00 0.58 0.03 89 1011.6
20260507083058 10 296 3.2 8.0 0.00 0.58 0.03 89 1011.6
20260507082531 10 306 4.8 8.0 0.00 0.58 0.03 89 1011.4
20260507082031 10 322 1.6 4.8 0.00 0.58 0.03 89 1011.2
20260507081547 10 302 3.2 6.4 0.00 0.58 0.03 88 1011.0
20260507081033 10 270 4.8 8.0 0.00 0.58 0.03 88 1011.0
20260507080532 10 305 4.8 8.0 0.00 0.58 0.03 88 1010.9
20260507080042 10 328 3.2 8.0 0.00 0.58 0.03 89 1011.0
20260507075531 10 312 4.8 11.3 0.00 0.58 0.03 88 1011.0
20260507075031 10 302 6.4 14.5 0.00 0.58 0.03 88 1011.1
20260507074540 10 333 6.4 14.5 0.00 0.58 0.03 88 1011.0
20260507074032 10 292 4.8 9.7 0.00 0.58 0.03 88 1011.0
20260507073532 10 307 3.2 8.0 0.03 0.58 0.03 88 1010.9
20260507073050 10 333 4.8 14.5 0.03 0.58 0.03 88 1011.0
20260507072533 10 344 6.4 14.5 0.03 0.58 0.03 88 1011.0
20260507072030 10 11 4.8 12.9 0.03 0.58 0.03 88 1011.1
20260507071538 10 325 4.8 16.1 0.03 0.58 0.03 89 1011.2
20260507071031 10 329 8.0 16.1 0.03 0.58 0.03 89 1011.3
20260507070531 10 312 4.8 9.7 0.03 0.58 0.03 90 1011.4
20260507070047 10 317 4.8 11.3 0.03 0.58 0.03 89 1011.5
20260507065530 10 331 6.4 16.1 0.03 0.58 0.03 88 1011.4
20260507065030 11 308 3.2 16.1 0.03 0.58 0.03 89 1011.3
20260507064545 11 348 8.0 16.1 0.03 0.58 0.03 87 1011.2
20260507064031 11 29 4.8 9.7 0.03 0.58 0.03 88 1011.2
20260507063532 11 335 3.2 9.7 0.00 0.56 0.00 88 1011.3
20260507063049 11 294 4.8 9.7 0.00 0.56 0.00 87 1011.4
20260507062530 11 352 3.2 9.7 0.00 0.56 0.00 87 1011.3
20260507062030 11 303 4.8 9.7 0.00 0.56 0.00 87 1011.5
20260507061544 11 352 3.2 14.5 0.00 0.56 0.00 87 1011.4
20260507061033 11 314 4.8 14.5 0.00 0.56 0.00 87 1011.4
20260507060530 11 336 3.2 11.3 0.00 0.56 0.00 86 1011.3
20260507060041 11 342 6.4 12.9 0.00 0.56 0.00 86 1011.3
20260507055531 12 323 4.8 12.9 0.00 0.56 0.00 87 1011.2
20260507055031 11 329 4.8 11.3 0.00 0.56 0.00 88 1011.3
20260507054543 11 325 3.2 8.0 0.00 0.56 0.00 88 1011.2
20260507054031 12 333 3.2 6.4 0.00 0.56 0.00 88 1011.2
20260507053530 12 324 3.2 6.4 0.00 0.56 0.00 88 1011.2
20260507053039 12 0 0.0 4.8 0.00 0.56 0.00 89 1011.3
20260507052531 12 13 1.6 6.4 0.00 0.56 0.00 89 1011.3
20260507052031 12 324 1.6 6.4 0.00 0.56 0.00 88 1011.1
20260507051539 12 343 1.6 8.0 0.00 0.56 0.00 88 1011.1
20260507051030 12 22 3.2 8.0 0.00 0.56 0.00 88 1011.3
20260507050530 12 338 3.2 8.0 0.00 0.56 0.00 88 1011.3
20260507050045 12 302 4.8 8.0 0.00 0.56 0.00 88 1011.6
20260507045531 12 335 0.0 6.4 0.00 0.56 0.00 86 1011.2
20260507045031 12 9 3.2 16.1 0.03 0.56 0.00 86 1011.4
20260507044546 12 341 6.4 16.1 0.03 0.56 0.00 87 1011.5
20260507044032 12 313 8.0 17.7 0.03 0.56 0.00 86 1011.6
20260507043532 12 288 9.7 17.7 0.03 0.56 0.00 87 1011.4
20260507043042 12 321 8.0 20.9 0.03 0.56 0.00 88 1011.2
20260507042533 12 333 11.3 20.9 0.03 0.56 0.00 87 1011.0
20260507042030 12 329 8.0 12.9 0.03 0.56 0.00 89 1010.9
20260507041548 12 293 6.4 14.5 0.03 0.56 0.00 88 1010.7
20260507041033 12 5 3.2 14.5 0.05 0.56 0.00 88 1010.8
20260507040532 12 315 6.4 11.3 0.10 0.56 0.00 88 1011.1
20260507040045 12 313 1.6 12.9 0.10 0.56 0.00 88 1011.0
20260507035531 12 350 4.8 12.9 0.10 0.56 0.56 88 1011.0
20260507035033 12 338 6.4 14.5 0.08 0.53 0.53 88 1011.0
20260507034545 12 273 3.2 14.5 0.08 0.53 0.53 90 1011.0
20260507034031 12 317 8.0 17.7 0.08 0.53 0.53 90 1010.8
20260507033532 13 307 8.0 19.3 0.08 0.53 0.53 90 1010.8
20260507033044 13 315 9.7 19.3 0.08 0.53 0.53 90 1010.7
20260507032533 13 292 8.0 16.1 0.08 0.53 0.53 89 1010.7
20260507032030 13 352 4.8 16.1 0.08 0.53 0.53 89 1010.6
20260507031541 13 338 8.0 17.7 0.08 0.53 0.53 88 1010.7
20260507031032 14 311 8.0 17.7 0.03 0.48 0.48 86 1011.1
20260507030530 14 345 9.7 16.1 0.00 0.46 0.46 85 1011.0
20260507030046 14 330 9.7 19.3 0.00 0.46 0.46 84 1010.8
20260507025530 14 289 8.0 19.3 0.00 0.46 0.46 84 1010.6
20260507025031 14 343 9.7 14.5 0.00 0.46 0.46 85 1010.2
20260507024554 15 300 6.4 14.5 0.00 0.46 0.46 85 1010.3
20260507024031 15 352 4.8 14.5 0.00 0.46 0.46 85 1010.4
20260507023541 15 331 8.0 14.5 0.00 0.46 0.46 85 1010.5
20260507023042 15 305 8.0 12.9 0.00 0.46 0.46 85 1010.6
20260507022531 15 294 4.8 12.9 0.00 0.46 0.46 85 1010.4
20260507022031 15 315 8.0 12.9 0.00 0.46 0.46 85 1010.4
20260507021545 15 298 6.4 12.9 0.00 0.46 0.46 85 1010.5
20260507021030 15 313 6.4 14.5 0.00 0.46 0.46 85 1010.4
20260507020530 15 294 6.4 14.5 0.00 0.46 0.46 85 1010.3
20260507020055 15 269 6.4 14.5 0.00 0.46 0.46 85 1010.5
20260507015531 15 262 8.0 14.5 0.00 0.46 0.46 85 1010.5
20260507015030 15 257 6.4 16.1 0.00 0.46 0.46 85 1010.1
20260507014554 15 255 9.7 16.1 0.00 0.46 0.46 85 1010.1
20260507014031 15 294 8.0 16.1 0.00 0.46 0.46 85 1010.1
20260507013529 15 308 6.4 16.1 0.00 0.46 0.46 85 1010.2
20260507013048 15 304 6.4 19.3 0.00 0.46 0.46 85 1010.2
20260507012533 15 275 8.0 19.3 0.00 0.46 0.46 85 1010.5
20260507012031 15 325 8.0 17.7 0.00 0.46 0.46 85 1010.6
20260507011544 15 300 11.3 19.3 0.03 0.46 0.46 85 1010.4
20260507011030 15 333 9.7 19.3 0.03 0.46 0.46 85 1010.5
20260507010530 16 298 11.3 19.3 0.03 0.46 0.46 85 1010.4
20260507010044 16 311 9.7 20.9 0.03 0.46 0.46 85 1010.4
20260507005532 16 301 12.9 22.5 0.03 0.46 0.46 85 1010.7
20260507005032 16 319 12.9 22.5 0.03 0.46 0.46 84 1010.5
20260507004544 16 284 11.3 20.9 0.03 0.46 0.46 86 1010.3
20260507004030 16 308 11.3 20.9 0.03 0.46 0.46 87 1010.4
20260507003530 17 329 12.9 20.9 0.03 0.46 0.46 89 1010.3
20260507003038 17 269 4.8 12.9 0.03 0.46 0.46 92 1010.0
20260507002530 17 250 1.6 8.0 0.03 0.46 0.46 92 1009.7
20260507002030 17 288 1.6 6.4 0.03 0.46 0.46 92 1009.8
20260507001547 17 250 0.0 4.8 0.00 0.43 0.43 91 1010.0
20260507001030 17 276 0.0 6.4 0.00 0.43 0.43 90 1009.5
20260507000532 17 0 0.0 6.4 0.00 0.43 0.43 90 1009.5
20260507000045 17 248 3.2 6.4 0.00 0.43 0.43 90 1009.4
20260506235532 18 241 1.6 9.7 0.00 0.43 0.43 89 1009.4
20260506235030 18 237 1.6 9.7 0.00 0.43 0.43 88 1009.3
20260506234550 18 287 4.8 6.4 0.00 0.43 0.43 87 1009.0
20260506234031 18 257 0.0 8.0 0.00 0.43 0.43 86 1008.8
20260506233531 18 0 0.0 8.0 0.00 0.43 0.43 85 1008.8
20260506233043 18 184 3.2 6.4 0.00 0.43 0.43 84 1008.6
20260506232532 18 196 1.6 6.4 0.00 0.43 0.43 84 1008.7
20260506232031 18 174 1.6 6.4 0.00 0.43 0.43 83 1008.8
20260506231551 18 0 1.6 6.4 0.00 0.43 0.43 83 1008.8
20260506231031 19 207 1.6 9.7 0.00 0.43 0.43 83 1008.6
20260506230531 19 184 1.6 11.3 0.00 0.43 0.43 83 1008.7
20260506230056 19 184 3.2 14.5 0.00 0.43 0.43 82 1008.8
20260506225535 19 217 6.4 14.5 0.00 0.43 0.43 81 1009.0
20260506225031 19 227 4.8 11.3 0.00 0.43 0.43 81 1008.9
20260506224546 19 205 3.2 12.9 0.00 0.43 0.43 81 1008.9
20260506224030 19 227 6.4 12.9 0.00 0.43 0.43 80 1008.6
20260506223534 20 207 3.2 14.5 0.00 0.43 0.43 80 1008.6
20260506223051 20 219 4.8 14.5 0.00 0.43 0.43 80 1008.8
20260506222531 20 213 6.4 12.9 0.00 0.43 0.43 79 1008.8
20260506222031 20 167 6.4 12.9 0.00 0.43 0.43 80 1008.7
20260506221544 20 183 4.8 9.7 0.00 0.43 0.43 81 1008.8
20260506221033 19 205 3.2 8.0 0.00 0.43 0.43 82 1008.6
20260506220535 18 165 1.6 6.4 0.00 0.43 0.43 84 1008.7
20260506220041 18 208 1.6 8.0 0.00 0.43 0.43 84 1008.7
20260506215536 18 196 1.6 8.0 0.00 0.43 0.43 84 1008.6
20260506215031 18 201 1.6 8.0 0.00 0.43 0.43 84 1008.8
20260506214540 18 198 1.6 6.4 0.00 0.43 0.43 84 1008.6
20260506214030 18 217 1.6 9.7 0.00 0.43 0.43 85 1008.6
20260506213532 18 189 4.8 12.9 0.00 0.43 0.43 84 1008.5
20260506213102 18 187 4.8 12.9 0.00 0.43 0.43 84 1008.4
20260506212531 18 200 4.8 12.9 0.00 0.43 0.43 84 1008.3
20260506212033 18 204 3.2 9.7 0.00 0.43 0.43 83 1008.2
20260506211603 18 198 4.8 12.9 0.00 0.43 0.43 83 1008.2
20260506211031 18 217 4.8 12.9 0.00 0.43 0.43 83 1008.2
20260506210531 18 235 3.2 9.7 0.00 0.43 0.43 83 1008.1
20260506210045 18 173 4.8 9.7 0.00 0.43 0.43 82 1008.0
20260506205531 18 223 3.2 9.7 0.00 0.43 0.43 83 1008.1
20260506205031 18 233 3.2 8.0 0.00 0.43 0.43 82 1008.0
20260506204550 18 223 3.2 12.9 0.00 0.43 0.43 83 1008.0
20260506204031 18 227 4.8 12.9 0.00 0.43 0.43 82 1008.2
20260506203532 18 161 3.2 8.0 0.00 0.43 0.43 82 1008.0
20260506203047 18 211 3.2 11.3 0.00 0.43 0.43 82 1008.2
20260506202531 18 246 1.6 12.9 0.00 0.43 0.43 82 1008.3
20260506202033 18 184 6.4 12.9 0.00 0.43 0.43 81 1008.1
20260506201555 18 195 3.2 6.4 0.00 0.43 0.43 82 1008.3
20260506201031 18 244 3.2 14.5 0.00 0.43 0.43 82 1008.1
20260506200531 18 199 3.2 14.5 0.00 0.43 0.43 83 1008.3
20260506200052 18 221 4.8 14.5 0.00 0.43 0.43 82 1008.3
20260506195532 18 209 3.2 9.7 0.00 0.43 0.43 82 1008.3
20260506195031 18 203 4.8 16.1 0.00 0.43 0.43 82 1008.3
20260506194556 18 206 4.8 16.1 0.00 0.43 0.43 81 1008.3
20260506194032 18 140 9.7 14.5 0.00 0.43 0.43 81 1008.3
20260506193531 18 262 1.6 14.5 0.00 0.43 0.43 82 1008.5
20260506193044 18 142 1.6 14.5 0.00 0.43 0.43 82 1008.3
20260506192530 18 208 4.8 14.5 0.00 0.43 0.43 81 1008.3
20260506192032 18 237 4.8 16.1 0.00 0.43 0.43 81 1008.3
20260506191547 18 173 3.2 16.1 0.00 0.43 0.43 84 1008.4
20260506191034 18 205 8.0 16.1 0.00 0.43 0.43 82 1008.5
20260506190531 18 119 6.4 17.7 0.00 0.43 0.43 82 1008.4
20260506190044 18 193 6.4 20.9 0.00 0.43 0.43 83 1008.6
20260506185532 18 182 11.3 20.9 0.00 0.43 0.43 83 1008.6
20260506185033 18 185 11.3 19.3 0.00 0.43 0.43 83 1008.6
20260506184542 18 165 9.7 22.5 0.00 0.43 0.43 83 1008.7
20260506184032 18 227 14.5 22.5 0.00 0.43 0.43 84 1008.8
20260506183531 18 167 8.0 19.3 0.00 0.43 0.43 84 1008.7
20260506183058 18 252 11.3 22.5 0.00 0.43 0.43 83 1008.7
20260506182530 17 200 9.7 24.1 0.00 0.43 0.43 84 1008.7
20260506182030 17 205 12.9 27.4 0.00 0.43 0.43 85 1008.6
20260506181544 17 202 11.3 27.4 0.00 0.43 0.43 85 1008.6
20260506181032 17 202 9.7 20.9 0.00 0.43 0.43 86 1008.7
20260506180534 17 221 9.7 25.7 0.00 0.43 0.43 86 1008.7
20260506180049 17 253 14.5 25.7 0.00 0.43 0.43 85 1008.8
20260506175532 17 186 4.8 24.1 0.00 0.43 0.43 86 1008.8
20260506175030 17 159 11.3 25.7 0.00 0.43 0.43 86 1009.0
20260506174545 17 202 11.3 25.7 0.00 0.43 0.43 87 1009.1
20260506174030 17 217 9.7 25.7 0.00 0.43 0.43 88 1008.9
20260506173532 16 160 12.9 25.7 0.00 0.43 0.43 87 1008.7
20260506173050 16 218 11.3 29.0 0.00 0.43 0.43 88 1008.7
20260506172531 16 197 14.5 27.4 0.00 0.43 0.43 88 1008.7
20260506172031 16 205 9.7 22.5 0.00 0.43 0.43 88 1008.9
20260506171542 16 224 11.3 20.9 0.00 0.43 0.43 89 1009.0
20260506171033 16 200 11.3 20.9 0.00 0.43 0.43 89 1008.9
20260506170530 16 190 9.7 24.1 0.00 0.43 0.43 89 1008.9
20260506170108 16 207 9.7 24.1 0.00 0.43 0.43 89 1008.9
20260506165532 16 218 9.7 24.1 0.00 0.43 0.43 90 1008.8
20260506165031 16 175 11.3 22.5 0.00 0.43 0.43 90 1008.7
20260506164542 16 174 8.0 25.7 0.00 0.43 0.43 91 1008.8
20260506164034 16 202 11.3 29.0 0.00 0.43 0.43 90 1008.8
20260506163530 15 163 12.9 29.0 0.00 0.43 0.43 90 1008.9
20260506163054 15 188 9.7 24.1 0.00 0.43 0.43 91 1008.9
20260506162531 15 180 9.7 24.1 0.00 0.43 0.43 91 1008.8
20260506162033 15 196 12.9 27.4 0.00 0.43 0.43 91 1008.9
20260506161544 15 210 11.3 27.4 0.00 0.43 0.43 91 1008.9
20260506161031 15 180 11.3 27.4 0.00 0.43 0.43 91 1009.0
20260506160531 15 150 9.7 24.1 0.00 0.43 0.43 91 1008.9
20260506160043 15 208 11.3 27.4 0.00 0.43 0.43 91 1009.0
20260506155531 15 126 14.5 27.4 0.03 0.43 0.43 92 1009.0
20260506155031 15 171 12.9 24.1 0.03 0.43 0.43 92 1009.2
20260506154544 15 157 11.3 27.4 0.05 0.43 0.43 92 1009.0
20260506154031 15 207 11.3 35.4 0.10 0.43 0.43 93 1009.0
20260506153530 15 175 11.3 35.4 0.10 0.43 0.43 93 1008.8
20260506153037 15 170 16.1 35.4 0.10 0.43 0.43 93 1008.8
20260506152531 15 162 12.9 27.4 0.13 0.43 0.43 93 1008.9
20260506152033 15 207 14.5 24.1 0.13 0.43 0.43 94 1009.2
20260506151546 15 190 14.5 27.4 0.13 0.43 0.43 93 1009.3
20260506151030 15 144 9.7 33.8 0.15 0.43 0.43 94 1009.0
20260506150531 15 165 9.7 33.8 0.15 0.43 0.43 94 1009.2
20260506150044 15 166 12.9 30.6 0.15 0.43 0.43 94 1009.4
20260506145535 15 161 11.3 30.6 0.13 0.41 0.41 93 1009.6
20260506145032 15 155 16.1 29.0 0.15 0.41 0.41 93 1009.8
20260506144558 15 200 8.0 29.0 0.13 0.38 0.38 93 1009.8
20260506144032 15 172 9.7 29.0 0.10 0.33 0.33 93 1009.9
20260506143532 15 194 8.0 25.7 0.10 0.33 0.33 93 1009.7
20260506143041 15 153 8.0 22.5 0.13 0.33 0.33 93 1009.6
20260506142531 15 154 8.0 24.1 0.10 0.30 0.30 93 1009.6
20260506142033 15 178 14.5 33.8 0.13 0.30 0.30 93 1009.4
20260506141540 15 111 14.5 33.8 0.10 0.28 0.28 93 1009.3
20260506141034 15 142 9.7 25.7 0.13 0.28 0.28 93 1009.6
20260506140534 15 192 11.3 25.7 0.13 0.28 0.28 93 1009.5
20260506140040 15 169 11.3 25.7 0.13 0.28 0.28 93 1009.6
20260506135531 15 185 14.5 27.4 0.15 0.28 0.28 93 1009.4
20260506135031 15 165 14.5 27.4 0.13 0.25 0.25 92 1009.6
20260506134545 15 142 11.3 27.4 0.15 0.25 0.25 92 1009.4
20260506134035 15 171 14.5 27.4 0.13 0.23 0.23 92 1009.8
20260506133531 15 165 12.9 24.1 0.13 0.20 0.20 92 1009.8
20260506133045 15 182 11.3 20.9 0.15 0.20 0.20 92 1010.0
20260506132531 15 127 8.0 20.9 0.15 0.18 0.18 92 1010.1
20260506132035 15 160 9.7 20.9 0.15 0.18 0.18 91 1009.9
20260506131541 15 134 8.0 22.5 0.15 0.18 0.18 91 1009.8
20260506131031 15 179 6.4 20.9 0.15 0.15 0.15 91 1009.8
20260506130533 15 161 4.8 19.3 0.15 0.15 0.15 91 1009.9
20260506130045 15 122 9.7 19.3 0.15 0.15 0.15 90 1010.0
20260506125531 15 175 9.7 20.9 0.13 0.13 0.13 90 1009.6
20260506125031 15 191 8.0 20.9 0.13 0.13 0.13 89 1009.6
20260506124543 15 198 8.0 17.7 0.10 0.10 0.10 88 1009.5
20260506124031 15 167 9.7 22.5 0.08 0.08 0.08 88 1009.7
20260506123531 15 152 8.0 22.5 0.08 0.08 0.08 87 1009.8
20260506123038 15 230 9.7 19.3 0.05 0.05 0.05 85 1009.8
20260506122531 16 193 8.0 19.3 0.03 0.03 0.03 85 1009.8
20260506122030 16 182 8.0 20.9 0.03 0.03 0.03 84 1010.0
20260506121549 16 194 8.0 22.5 0.03 0.03 0.03 83 1010.0
20260506121031 16 206 9.7 22.5 0.00 0.00 0.00 82 1010.0
20260506120532 16 206 8.0 22.5 0.00 0.00 0.00 81 1010.2
20260506120045 16 188 11.3 24.1 0.00 0.00 0.00 80 1010.2
20260506115534 16 177 11.3 24.1 0.00 0.00 0.00 79 1010.1
20260506115031 16 187 11.3 24.1 0.00 0.00 0.00 79 1010.2
20260506114541 17 202 11.3 24.1 0.00 0.00 0.00 78 1010.1
20260506114032 17 192 9.7 24.1 0.00 0.00 0.00 78 1010.1
20260506113531 17 203 8.0 16.1 0.00 0.00 0.00 78 1010.0
20260506113042 17 170 9.7 16.1 0.00 0.00 0.00 78 1009.9
20260506112534 17 217 6.4 20.9 0.00 0.00 0.00 77 1009.7
20260506112031 17 197 11.3 20.9 0.00 0.00 0.00 77 1009.5
20260506111540 17 200 9.7 25.7 0.00 0.00 0.00 76 1009.6